map of GEO home
GEO - Airport
Location
City:  Georgetown, Demerara-Mahaica, Guyana
Name:Cheddi Jagan International Airport
Old (Alt.):Timehri International Airport
ICAO:SYCJ
IATA:GEO

Details
Type:Airport (Aerodrome, Airfield)
Use:Public/Civil, International (customs port of entry)
Latitude:629'55"N (6.498553)
Longitude:5815'15"W (-58.254118)
Datum:WGS 1984
Elevation:95 ft (29 m)
Variation:16.45W (WMM2015v2 magnetic declination)
-0.06 annual change
Runways:2
Longest:7448 × 148 ft (2270 × 45 m), paved

Time
Time Zone:UTC-4
Local Time:

Weather
METAR:SYCJ 041400Z 08012KT 9999 SCT017 SCT100 27/24 Q1014 RESH NOSIG
TAF:SYCJ 040500Z 0406/0506 03004KT 9999 SCT014 BKN035
TEMPO 0408/0412 5000 SHRA
BECMG 0412/0414 07012KT 9999 BKN018 BKN040
BECMG 0423/0501 04004KT 9999 SCT014

Related Locations
Nearby:
Farthest:KSR: 12356 mi / 19884 km
Selayar Islands [H. Aroeppala Airport], SN, ID

Find:

   beyond  
but within

Other Information
Maps:
NOTAMs:
Links:
Sources:

  
  • flag of Guyana
  

Sectional Chart

Flight Planning
at skyvector.com

Satellite Image

Google Maps Satellite view

 

Copyright © 2004-2019 Karl L. Swartz. All rights reserved.
The Great Circle Mapper name and logo are trademarks of the Great Circle Mapper.
All other trademarks mentioned herein belong to their respective owners.
Please see credits for attibutions and further copyright information.

  Follow gcmap on Facebook Follow gcmap on Twitter GCmap on LinkedIn

hCard Microformat

Geo Microformat